Regional Weather Roundup
Issued by NWS

Home | Current Version | Previous Version | Text Only | Print | Product List | Glossary On
Versions: 1 2 3 4 5 6 7 8 9 10 11 12 13 14 15 16 17 18 19 20 21 22 23 24 25 26 27 28 29 30 31 32 33 34 35 36 37 38 39 40 41 42 43 44 45 46 47 48 49 50
000
ASUS43 KDTX 040401
RWRMI
MICHIGAN HOURLY REGIONAL WEATHER ROUNDUP
NATIONAL WEATHER SERVICE DETROIT/PONTIAC MI
1200 AM EDT MON MAY 04 2015

NOTE: "FAIR" INDICATES FEW OR NO CLOUDS BELOW 12,000 FEET WITH NO
SIGNIFICANT WEATHER AND/OR OBSTRUCTION TO VISIBILITY.

MIZ047>049-052>055-059>063-066>070-074>076-081>083-040500-
SOUTHEAST LOWER MICHIGAN

CITY           SKY/WX    TMP DP  RH WIND       PRES   REMARKS
ADRIAN         MOCLDY    65  47  52 S8        30.02F
ALMA           CLOUDY    68  46  44 S8        29.96R
ANN ARBOR      PTCLDY    63  46  54 S6        30.02S
BAD AXE        CLOUDY    64  44  47 S7        29.97S
CARO           CLOUDY    68  47  45 CALM      29.97R
DETROIT CITY   PTCLDY    64  47  53 S6        30.02S
DETROIT        MOCLDY    65  47  52 S8        30.02F
FLINT          MOCLDY    71  46  40 S8        29.99R
GROSSE ILE     PTCLDY    61  54  77 S8        30.01S
HILLSDALE      MOCLDY    68  46  45 S7        30.01S
HOWELL         PTCLDY    67  44  43 S7        30.00S

CITY           SKY/WX    TMP DP  RH WIND       PRES   REMARKS
JACKSON        PTCLDY    67  46  47 S7        30.00S
LAMBERTVILLE   PTCLDY    68  45  42 S5        30.03S
LANSING        PTCLDY    67  47  48 S12       29.98R
LAPEER         CLOUDY    68  44  42 S7        30.00R
MASON          PTCLDY    64  46  50 CALM      29.99S
MONROE         PTCLDY    64  48  55 S6        30.01S
PONTIAC        CLOUDY    68  45  43 S8        30.01R
PORT HOPE        N/A     69  43  38 VRB6      29.95R
PORT HURON     PTCLDY    59  46  63 S3        30.02S
TRI CITIES     CLOUDY    72  46  39 S9        29.96R
MIDLAND        CLOUDY    70  45  40 S6        29.95R
TROY           MOCLDY    70  44  38 S7        30.03S
SAGINAW HB     MOCLDY    72  43  35 S12G17    29.96R
$$
MIZ043>046-050>051-056>058-064>065-071>073-077>080-040500-
SOUTHWEST LOWER MICHIGAN

CITY           SKY/WX    TMP DP  RH WIND       PRES   REMARKS
BATTLE CREEK   PTCLDY    68  47  46 S10       29.99R
BENTON HARBOR  CLOUDY    62  53  72 SE5       29.95S
BIG RAPIDS     MOCLDY    66  44  45 SW6       29.95R
COLDWATER      PTCLDY    68  44  42 S6        29.99S
FREMONT        FAIR      60  41  49 S3        29.95R
HOLLAND        CLOUDY    61  51  70 S5        29.96S
GRAND RAPIDS   PTCLDY    65  45  48 W8        29.97R
IONIA          FAIR      67  46  45 S10       29.95R
KALAMAZOO      MOCLDY    65  48  54 S9        29.98S
LUDINGTON      CLOUDY    65  53  64 S13G18    29.92S
MARSHALL       MOCLDY    67  47  49 S12G17    29.98S
MOUNT PLEASANT CLOUDY    68  46  44 S5        29.95R
MUSKEGON       CLEAR     59  49  69 S7        29.95R
SOUTH HAVEN    CLOUDY    62  53  72 SE3       29.95F
$$
MIZ016>042-040500-
NORTHERN LOWER MICHIGAN

CITY           SKY/WX    TMP DP  RH WIND       PRES   REMARKS
ALPENA         MOCLDY    68  45  43 S6        29.91S
BEAVER ISLAND  RAIN      54  45  73 W9        29.93R
BELLAIRE       MOCLDY    61  53  75 CALM      29.89S
CADILLAC       CLOUDY    62  46  55 S5        29.94S
CHARLEVOIX     CLOUDY    69  49  49 S7        29.90S
FRANKFORT      MOCLDY    64  48  57 S13G20    29.91R
GAYLORD        CLOUDY    64  50  60 S7        29.91S
GRAYLING       CLOUDY    65  46  50 S5        29.94S
HARBOR SPRINGS CLOUDY    65  47  53 CALM      29.88R
HOUGHTON LAKE  CLOUDY    66  45  46 S6        29.94S
MANISTEE       MOCLDY    64  50  59 S6        29.93R
OSCODA         CLOUDY    60  47  61 SW3       29.93S
PELLSTON       CLOUDY    59  44  57 N9        29.89R
ROGERS CITY    PTCLDY    68  47  46 S8        29.88F
TRAVERSE CITY  CLOUDY    69  49  48 SW3       29.90S
$$
MIZ007>008-015-040500-
EASTERN UPPER MICHIGAN

CITY           SKY/WX    TMP DP  RH WIND       PRES   REMARKS
KINROSS        CLOUDY    55  54  94 SW7       29.88R
MACKINAC ISLAN LGT RAIN  53  51  94 NW7       29.88S
NEWBERRY       LGT RAIN  56  53  88 S8G18     29.86F
S. S. MARIE    CLOUDY    57  50  77 SW3       29.87S
MUNISING         N/A     59  55  87 S6        29.83R
$$
MIZ004>006-011>014-085-040500-
CENTRAL UPPER MICHIGAN

CITY           SKY/WX    TMP DP  RH WIND       PRES   REMARKS
MANISTIQUE     RAIN      49  47  94 CALM      29.86S
ESCANABA       CLOUDY    57  54  88 S8        29.88R
MENOMINEE      CLOUDY    61  55  82 NW5       29.90R
SAWYER-GWINN   CLOUDY    56  55  94 CALM      29.88R
$$
MIZ001>003-009>011-084-040500-
WESTERN UPPER MICHIGAN

CITY           SKY/WX    TMP DP  RH WIND       PRES   REMARKS
IRON MOUNTAIN  LGT RAIN  58  55  90 CALM      29.88R
HOUGHTON       CLOUDY    57  39  51 NW15      29.84R
COPPER HARBOR    N/A     64  31  28 NW8       29.81R
IRONWOOD       CLOUDY    52  46  82 W3        29.87R
$$

ABBREVIATIONS USED IN REMARKS
   TC - TEMPERATURE IN CELSIUS
  WCI - WIND CHILL INDEX
   HX - HEAT INDEX
  VSB - VISIBILITY



USA.gov is the U.S. government's official web portal to all federal, state and local government web resources and services.